• In Hungary
  • List of Countries
  • For 7 days
  • Water Temperature
  • Satellite Maps
  • Weather Map
  • News
  • Weather Widgets
  • user-avatar
    Login

    Hourly Weather Mihaylova Buda

    Today, 14 November, Wednesday

    Time Temperature Precipitation Wind Pressure Humidity
    00:00 -6°C° 0 mm 7 mps 754 mmHg 48%
    01:00 -6°C° 0 mm 7 mps 753 mmHg 48%
    02:00 -6°C° 0 mm 7 mps 753 mmHg 50%
    03:00 -6°C° 0 mm 7 mps 752 mmHg 51%
    04:00 -6°C° 0 mm 7 mps 751 mmHg 52%
    05:00 -6°C° 0 mm 7 mps 751 mmHg 53%
    06:00 -6°C° 0 mm 7 mps 750 mmHg 55%
    07:00 -6°C° 0 mm 7 mps 750 mmHg 56%
    08:00 -6°C° 0 mm 7 mps 750 mmHg 58%
    09:00 -6°C° 0.2 mm 7 mps 750 mmHg 61%
    10:00 -6°C° 0.2 mm 7 mps 750 mmHg 64%
    11:00 -5°C° 0.2 mm 6 mps 749 mmHg 67%
    12:00 -4°C° 0.2 mm 6 mps 749 mmHg 69%
    13:00 -4°C° 0.2 mm 6 mps 749 mmHg 71%
    14:00 -4°C° 0.2 mm 5 mps 749 mmHg 73%
    15:00 -4°C° 0.2 mm 5 mps 749 mmHg 76%
    16:00 -3°C° 0.2 mm 4 mps 749 mmHg 79%
    17:00 -4°C° 0.2 mm 4 mps 749 mmHg 82%
    18:00 -4°C° 0.1 mm 4 mps 749 mmHg 84%
    19:00 -2°C° 0.1 mm 3 mps 750 mmHg 86%
    20:00 -2°C° 0.1 mm 3 mps 750 mmHg 87%
    21:00 -2°C° 0.1 mm 3 mps 750 mmHg 88%
    22:00 -2°C° 0.1 mm 2 mps 751 mmHg 89%
    23:00 -2°C° 0.1 mm 2 mps 751 mmHg 90%

    Tomorrow, 15 November, Thursday

    Time Temperature Precipitation Wind Pressure Humidity
    00:00 -2°C° 0.1 mm 2 mps 751 mmHg 91%
    01:00 -2°C° 0.1 mm 2 mps 752 mmHg 91%
    02:00 -2°C° 0.1 mm 2 mps 752 mmHg 92%
    03:00 -2°C° 0.1 mm 2 mps 752 mmHg 92%
    04:00 -2°C° 0.1 mm 2 mps 753 mmHg 93%
    05:00 -2°C° 0.1 mm 2 mps 753 mmHg 93%
    06:00 -2°C° 0.1 mm 2 mps 753 mmHg 93%
    07:00 -2°C° 0.1 mm 2 mps 754 mmHg 93%
    08:00 -2°C° 0.1 mm 2 mps 755 mmHg 93%
    09:00 -1°C° 0.1 mm 2 mps 755 mmHg 92%
    10:00 -1°C° 0.1 mm 2 mps 756 mmHg 90%
    11:00 +1°C° 0.1 mm 2 mps 756 mmHg 89%
    12:00 +1°C° 0.1 mm 2 mps 756 mmHg 89%
    13:00 +1°C° 0.1 mm 2 mps 757 mmHg 89%
    14:00 +1°C° 0.1 mm 2 mps 757 mmHg 89%
    15:00 -1°C° 0 mm 2 mps 757 mmHg 91%
    16:00 -1°C° 0 mm 2 mps 758 mmHg 92%
    17:00 -1°C° 0 mm 2 mps 758 mmHg 93%
    18:00 -1°C° 0 mm 2 mps 759 mmHg 93%
    19:00 -1°C° 0 mm 2 mps 759 mmHg 92%
    20:00 -1°C° 0 mm 2 mps 760 mmHg 92%
    21:00 -1°C° 0 mm 2 mps 760 mmHg 92%
    22:00 -1°C° 0 mm 2 mps 760 mmHg 92%
    23:00 +1°C° 0 mm 1 mps 761 mmHg 92%

    Day after tomorrow, 16 November, Friday

    Time Temperature Precipitation Wind Pressure Humidity
    00:00 +1°C° 0 mm 1 mps 761 mmHg 92%
    01:00 -1°C° 0 mm 2 mps 761 mmHg 91%
    02:00 -2°C° 0 mm 2 mps 762 mmHg 91%
    03:00 -2°C° 0 mm 2 mps 762 mmHg 91%
    04:00 -3°C° 0 mm 2 mps 762 mmHg 90%
    05:00 -3°C° 0 mm 2 mps 762 mmHg 90%
    06:00 -3°C° 0 mm 2 mps 763 mmHg 88%
    07:00 -3°C° 0 mm 2 mps 763 mmHg 87%
    08:00 -4°C° 0 mm 2 mps 764 mmHg 85%
    09:00 -3°C° 0 mm 2 mps 764 mmHg 80%
    10:00 -2°C° 0 mm 2 mps 764 mmHg 76%
    11:00 -1°C° 0 mm 2 mps 764 mmHg 71%
    12:00 +1°C° 0 mm 2 mps 764 mmHg 71%
    13:00 +2°C° 0 mm 1 mps 764 mmHg 72%
    14:00 +2°C° 0 mm 1 mps 764 mmHg 72%
    15:00 -1°C° 0 mm 2 mps 764 mmHg 74%
    16:00 -2°C° 0 mm 2 mps 764 mmHg 75%
    17:00 -3°C° 0 mm 2 mps 764 mmHg 77%
    18:00 -3°C° 0 mm 2 mps 764 mmHg 76%
    19:00 -3°C° 0 mm 2 mps 764 mmHg 75%
    20:00 -3°C° 0 mm 2 mps 765 mmHg 73%
    21:00 -2°C° 0 mm 1 mps 765 mmHg 71%
    22:00 -2°C° 0 mm 1 mps 765 mmHg 70%
    23:00 -2°C° 0 mm 1 mps 765 mmHg 68%

    17 November, Saturday

    Time Temperature Precipitation Wind Pressure Humidity
    00:00 -2°C° 0 mm 1 mps 765 mmHg 66%
    01:00 -2°C° 0 mm 1 mps 765 mmHg 64%
    02:00 -2°C° 0 mm 1 mps 765 mmHg 62%
    03:00 -2°C° 0 mm 1 mps 764 mmHg 62%
    04:00 -2°C° 0 mm 1 mps 764 mmHg 61%
    05:00 -2°C° 0 mm 1 mps 764 mmHg 61%
    06:00 -2°C° 0 mm 1 mps 764 mmHg 61%
    07:00 -2°C° 0 mm 1 mps 764 mmHg 61%
    08:00 -2°C° 0 mm 1 mps 764 mmHg 62%
    09:00 -1°C° 0 mm 1 mps 764 mmHg 60%
    10:00 0°C° 0 mm 1 mps 763 mmHg 59%
    11:00 +1°C° 0 mm 1 mps 763 mmHg 57%
    12:00 +1°C° 0 mm 1 mps 763 mmHg 61%
    13:00 +1°C° 0 mm 1 mps 762 mmHg 64%
    14:00 -1°C° 0 mm 2 mps 761 mmHg 68%
    15:00 -1°C° 0 mm 2 mps 761 mmHg 73%
    16:00 -2°C° 0 mm 2 mps 760 mmHg 78%
    17:00 -3°C° 0 mm 2 mps 760 mmHg 83%
    18:00 -4°C° 0 mm 3 mps 759 mmHg 85%
    19:00 -4°C° 0 mm 3 mps 759 mmHg 88%
    20:00 -2°C° 0 mm 3 mps 759 mmHg 90%
    21:00 -2°C° 0 mm 3 mps 758 mmHg 91%
    22:00 -2°C° 0 mm 3 mps 757 mmHg 92%
    23:00 -2°C° 0 mm 4 mps 757 mmHg 93%

    18 November, Sunday

    Time Temperature Precipitation Wind Pressure Humidity
    00:00 -2°C° 0 mm 4 mps 756 mmHg 93%
    01:00 -2°C° 0 mm 4 mps 755 mmHg 94%
    02:00 -2°C° 0 mm 4 mps 754 mmHg 94%
    03:00 -1°C° 0.1 mm 4 mps 753 mmHg 94%
    04:00 -1°C° 0.1 mm 4 mps 752 mmHg 95%
    05:00 -1°C° 0.1 mm 4 mps 752 mmHg 95%
    06:00 -1°C° 0.1 mm 4 mps 751 mmHg 95%
    07:00 -1°C° 0.1 mm 4 mps 750 mmHg 96%
    08:00 -1°C° 0.1 mm 4 mps 750 mmHg 96%
    09:00 0°C° 0.1 mm 4 mps 749 mmHg 95%
    10:00 0°C° 0.1 mm 4 mps 749 mmHg 95%
    11:00 0°C° 0.1 mm 4 mps 748 mmHg 95%
    12:00 0°C° 0.1 mm 4 mps 748 mmHg 94%
    13:00 0°C° 0.1 mm 4 mps 748 mmHg 93%
    14:00 0°C° 0.1 mm 4 mps 747 mmHg 92%
    15:00 0°C° 0.2 mm 4 mps 747 mmHg 92%
    16:00 0°C° 0.2 mm 5 mps 747 mmHg 92%
    17:00 0°C° 0.2 mm 5 mps 747 mmHg 92%
    18:00 -1°C° 0.1 mm 5 mps 746 mmHg 92%
    19:00 -1°C° 0.1 mm 4 mps 746 mmHg 91%
    20:00 -1°C° 0.1 mm 4 mps 746 mmHg 91%
    21:00 -1°C° 0.1 mm 4 mps 746 mmHg 91%
    22:00 -1°C° 0.1 mm 4 mps 746 mmHg 91%
    23:00 -1°C° 0.1 mm 4 mps 746 mmHg 91%

    19 November, Monday

    Time Temperature Precipitation Wind Pressure Humidity
    00:00 -1°C° 0.1 mm 4 mps 746 mmHg 91%
    01:00 -1°C° 0.1 mm 5 mps 746 mmHg 90%
    02:00 -1°C° 0.1 mm 5 mps 746 mmHg 90%
    03:00 -1°C° 0.1 mm 5 mps 746 mmHg 90%
    04:00 -1°C° 0.1 mm 5 mps 747 mmHg 91%
    05:00 -1°C° 0.1 mm 5 mps 747 mmHg 91%
    06:00 -1°C° 0 mm 5 mps 747 mmHg 90%
    07:00 -1°C° 0 mm 5 mps 748 mmHg 89%
    08:00 -2°C° 0 mm 6 mps 748 mmHg 89%
    09:00 -1°C° 0 mm 5 mps 748 mmHg 88%
    10:00 -1°C° 0 mm 5 mps 749 mmHg 87%
    11:00 0°C° 0 mm 5 mps 749 mmHg 86%
    12:00 0°C° 0.1 mm 5 mps 749 mmHg 86%
    13:00 0°C° 0.1 mm 5 mps 749 mmHg 86%
    14:00 0°C° 0.1 mm 5 mps 749 mmHg 86%
    15:00 -1°C° 0.1 mm 5 mps 749 mmHg 87%
    16:00 -1°C° 0.1 mm 5 mps 749 mmHg 87%
    17:00 -2°C° 0.1 mm 5 mps 749 mmHg 88%
    18:00 -2°C° 0.1 mm 5 mps 750 mmHg 88%
    19:00 -2°C° 0.1 mm 5 mps 750 mmHg 88%
    20:00 -2°C° 0.1 mm 5 mps 750 mmHg 89%
    21:00 -2°C° 0.1 mm 5 mps 750 mmHg 88%
    22:00 -2°C° 0.1 mm 5 mps 751 mmHg 88%
    23:00 -4°C° 0.1 mm 5 mps 751 mmHg 88%
    Show more